GW6388 Weather Reports


time (UTC)temp
C
wind
direction
speed
KPH
gust
KPH
rain 1hr
cm
rain 24hr
cm
rain mn
cm
humidity
%
barometer
mb
20260508044251 3 19 0.0 0.0 0.00 0.00 0.00 89 1096.6
20260508043747 3 18 0.0 0.0 0.00 0.00 0.00 88 1096.6
20260508043244 3 19 0.0 0.0 0.00 0.00 0.00 87 1096.6
20260508042741 3 13 0.0 1.6 0.00 0.00 0.00 87 1096.6
20260508042238 3 4 0.0 0.0 0.00 0.00 0.00 88 1096.4
20260508041735 3 24 0.0 0.0 0.00 0.00 0.00 89 1096.3
20260508041232 3 25 0.0 0.0 0.00 0.00 0.00 89 1096.3
20260508040728 3 24 0.0 0.0 0.00 0.00 0.00 88 1096.2
20260508040225 3 24 0.0 0.0 0.00 0.00 0.00 88 1096.2
20260508035723 3 22 0.0 0.0 0.00 0.00 0.00 88 1096.2
20260508035220 3 21 0.0 0.0 0.00 0.00 0.00 87 1096.3
20260508034716 3 21 0.0 0.0 0.00 0.00 0.00 87 1096.3
20260508034214 3 21 0.0 0.0 0.00 0.00 0.00 86 1096.2
20260508033711 3 19 0.0 0.0 0.00 0.00 0.00 85 1096.3
20260508033209 4 10 1.6 1.6 0.00 0.00 0.00 84 1096.2
20260508032706 4 16 0.0 0.0 0.00 0.00 0.00 83 1096.3
20260508032203 5 13 0.0 1.6 0.00 0.00 0.00 82 1096.2
20260508031700 5 15 0.0 0.0 0.00 0.00 0.00 82 1096.1
20260508031156 5 13 0.0 1.6 0.00 0.00 0.00 80 1096.3
20260508030652 5 9 0.0 1.6 0.00 0.00 0.00 80 1096.3
20260508030150 5 13 0.0 0.0 0.00 0.00 0.00 79 1096.3
20260508025646 5 16 0.0 0.0 0.00 0.00 0.00 78 1096.2
20260508025144 6 16 0.0 0.0 0.00 0.00 0.00 76 1096.1
20260508024639 6 12 0.0 0.0 0.00 0.00 0.00 76 1096.4
20260508024137 6 12 0.0 1.6 0.00 0.00 0.00 76 1096.3
20260508023633 7 10 0.0 1.6 0.00 0.00 0.00 73 1096.1
20260508023131 7 355 1.6 1.6 0.00 0.00 0.00 73 1096.1
20260508022626 7 25 0.0 1.6 0.00 0.00 0.00 71 1096.2
20260508022124 7 4 0.0 1.6 0.00 0.00 0.00 68 1096.4
20260508021619 7 8 0.0 1.6 0.00 0.00 0.00 67 1096.2
20260508021115 8 11 0.0 1.6 0.00 0.00 0.00 66 1096.1
20260508020613 8 10 1.6 1.6 0.00 0.00 0.00 65 1096.1
20260508020111 8 32 0.0 1.6 0.00 0.00 0.00 62 1096.1
20260508015608 9 24 0.0 1.6 0.00 0.00 0.00 60 1096.2
20260508015105 9 16 0.0 1.6 0.00 0.00 0.00 57 1096.1
20260508014601 10 359 1.6 3.2 0.00 0.00 0.00 56 1096.0
20260508014057 10 347 1.6 1.6 0.00 0.00 0.00 56 1096.0
20260508013553 10 20 0.0 1.6 0.00 0.00 0.00 56 1095.8
20260508013051 10 12 1.6 1.6 0.00 0.00 0.00 53 1095.8
20260508012548 10 2 1.6 1.6 0.00 0.00 0.00 53 1095.8
20260508012045 10 359 1.6 3.2 0.00 0.00 0.00 52 1095.5
20260508011544 10 348 3.2 3.2 0.00 0.00 0.00 51 1095.6
20260508011041 10 13 0.0 6.4 0.00 0.00 0.00 51 1095.3
20260508010537 10 330 3.2 3.2 0.00 0.00 0.00 50 1095.2
20260508010035 11 354 1.6 4.8 0.00 0.00 0.00 48 1095.5
20260508005531 11 20 3.2 3.2 0.00 0.00 0.00 47 1095.3
20260508005028 11 18 0.0 1.6 0.00 0.00 0.00 47 1095.0
20260508004524 11 8 1.6 4.8 0.00 0.00 0.00 45 1095.1
20260508004021 11 356 3.2 16.1 0.00 0.00 0.00 44 1095.2
20260508003517 11 297 6.4 11.3 0.00 0.00 0.00 43 1095.0
20260508003015 11 300 8.0 9.7 0.00 0.00 0.00 42 1094.9
20260508002511 12 354 4.8 11.3 0.00 0.00 0.00 42 1094.8
20260508002008 12 7 8.0 17.7 0.00 0.00 0.00 42 1094.6
20260508001504 12 332 14.5 17.7 0.00 0.00 0.00 41 1094.6
20260508001000 12 291 6.4 12.9 0.00 0.00 0.00 41 1094.5
20260508000457 12 1 8.0 11.3 0.00 0.00 0.00 41 1094.5
20260507235954 12 290 9.7 14.5 0.00 0.00 0.00 41 1094.4
20260507235450 13 218 12.9 16.1 0.00 0.00 0.00 41 1094.2
20260507234948 13 292 6.4 16.1 0.00 0.00 0.00 41 1094.2
20260507234444 13 314 8.0 20.9 0.00 0.00 0.00 41 1094.2
20260507233941 13 296 8.0 25.7 0.00 0.00 0.00 40 1094.5
20260507233438 13 283 9.7 14.5 0.00 0.00 0.00 40 1094.0
20260507232936 13 217 11.3 20.9 0.00 0.00 0.00 39 1093.9
20260507232432 13 0 11.3 25.7 0.00 0.00 0.00 39 1094.0
20260507231930 13 264 9.7 22.5 0.00 0.00 0.00 39 1094.0
20260507231425 13 342 11.3 17.7 0.00 0.00 0.00 40 1093.7
20260507230922 13 263 12.9 17.7 0.00 0.00 0.00 40 1093.8
20260507230420 13 345 11.3 24.1 0.00 0.00 0.00 40 1093.6
20260507225920 13 297 8.0 25.7 0.00 0.00 0.00 39 1093.8
20260507225417 13 348 12.9 16.1 0.00 0.00 0.00 38 1093.7
20260507224913 13 234 11.3 25.7 0.00 0.00 0.00 38 1093.6
20260507224409 13 339 6.4 9.7 0.00 0.00 0.00 38 1093.4
20260507223906 13 259 16.1 20.9 0.00 0.00 0.00 38 1093.7
20260507223401 13 302 12.9 14.5 0.00 0.00 0.00 37 1093.6
20260507222859 13 290 8.0 16.1 0.00 0.00 0.00 37 1093.4
20260507222355 14 240 9.7 12.9 0.00 0.00 0.00 38 1093.4
20260507221852 14 217 6.4 16.1 0.00 0.00 0.00 38 1093.3
20260507221348 14 277 8.0 11.3 0.00 0.00 0.00 38 1093.2
20260507220845 14 288 8.0 16.1 0.00 0.00 0.00 37 1093.2
20260507220343 15 307 11.3 25.7 0.00 0.00 0.00 36 1093.3
20260507215839 15 273 14.5 17.7 0.00 0.00 0.00 36 1093.0
20260507215336 14 244 3.2 14.5 0.00 0.00 0.00 36 1092.9
20260507214833 15 4 6.4 14.5 0.00 0.00 0.00 35 1092.9
20260507214331 15 227 12.9 16.1 0.00 0.00 0.00 37 1092.7
20260507213831 15 308 12.9 17.7 0.00 0.00 0.00 36 1092.6
20260507213329 15 278 3.2 14.5 0.00 0.00 0.00 34 1092.6
20260507212825 15 355 12.9 16.1 0.00 0.00 0.00 36 1092.6
20260507212321 15 339 8.0 12.9 0.00 0.00 0.00 36 1092.6
20260507211818 15 301 6.4 24.1 0.00 0.00 0.00 36 1092.7
20260507211315 15 281 17.7 22.5 0.00 0.00 0.00 35 1092.9
20260507210812 15 346 9.7 11.3 0.00 0.00 0.00 36 1092.7
20260507210309 15 285 8.0 16.1 0.00 0.00 0.00 36 1092.6
20260507205805 15 2 6.4 16.1 0.00 0.00 0.00 36 1092.6
20260507205306 15 287 4.8 17.7 0.00 0.00 0.00 38 1092.7
20260507204758 15 231 11.3 33.8 0.00 0.00 0.00 36 1092.7
20260507204256 15 266 9.7 16.1 0.00 0.00 0.00 35 1092.6
20260507203753 15 310 12.9 17.7 0.00 0.00 0.00 35 1092.8
20260507203251 15 322 4.8 9.7 0.00 0.00 0.00 37 1092.5
20260507202747 15 325 17.7 20.9 0.00 0.00 0.00 34 1092.6
20260507202243 14 253 14.5 24.1 0.00 0.00 0.00 35 1092.7
20260507201738 15 283 9.7 14.5 0.00 0.00 0.00 36 1092.5
20260507201235 15 345 14.5 22.5 0.00 0.00 0.00 36 1092.7
20260507200731 15 341 9.7 16.1 0.00 0.00 0.00 36 1092.9
20260507200227 15 355 6.4 17.7 0.00 0.00 0.00 36 1092.8
20260507195724 15 324 8.0 11.3 0.00 0.00 0.00 37 1092.8
20260507195221 14 9 4.8 11.3 0.00 0.00 0.00 37 1092.9
20260507194718 15 308 9.7 20.9 0.00 0.00 0.00 36 1093.0
20260507194214 15 300 12.9 16.1 0.00 0.00 0.00 34 1092.8
20260507193711 15 322 9.7 24.1 0.00 0.00 0.00 35 1093.2
20260507193208 15 246 4.8 12.9 0.00 0.00 0.00 34 1093.3
20260507192704 15 324 8.0 24.1 0.00 0.00 0.00 34 1093.0
20260507192201 15 345 12.9 27.4 0.00 0.00 0.00 33 1092.9
20260507191656 15 303 11.3 14.5 0.00 0.00 0.00 33 1093.2
20260507191154 15 335 6.4 12.9 0.00 0.00 0.00 35 1092.9
20260507190651 15 348 6.4 20.9 0.00 0.00 0.00 33 1093.2
20260507190149 15 19 3.2 4.8 0.00 0.00 0.00 34 1092.9
20260507185648 15 325 4.8 24.1 0.00 0.00 0.00 36 1093.0
20260507185144 15 199 20.9 25.7 0.00 0.00 0.00 35 1093.0
20260507184642 15 349 8.0 24.1 0.00 0.00 0.00 38 1092.9
20260507184140 14 1 6.4 12.9 0.00 0.00 0.00 40 1093.5
20260507183635 15 9 6.4 17.7 0.00 0.00 0.00 36 1093.4
20260507183133 15 346 16.1 25.7 0.00 0.00 0.00 35 1093.2
20260507182629 15 326 3.2 14.5 0.00 0.00 0.00 39 1093.0
20260507182125 14 18 4.8 11.3 0.00 0.00 0.00 39 1093.2
20260507181622 14 32 6.4 16.1 0.00 0.00 0.00 38 1093.7
20260507181118 14 267 11.3 24.1 0.00 0.00 0.00 39 1093.3
20260507180615 14 19 11.3 12.9 0.00 0.00 0.00 40 1093.3
20260507180112 15 111 3.2 17.7 0.00 0.00 0.00 40 1093.5
20260507175608 14 290 14.5 16.1 0.00 0.00 0.00 40 1093.4
20260507175106 15 293 12.9 14.5 0.00 0.00 0.00 39 1093.7
20260507174602 14 200 8.0 11.3 0.00 0.00 0.00 42 1093.5
20260507174100 13 234 9.7 16.1 0.00 0.00 0.00 41 1093.6
20260507173557 14 247 4.8 9.7 0.00 0.00 0.00 41 1093.7
20260507173054 14 152 4.8 12.9 0.00 0.00 0.00 42 1093.7
20260507172550 14 29 1.6 14.5 0.00 0.00 0.00 39 1093.7
20260507172047 14 15 6.4 14.5 0.00 0.00 0.00 40 1093.8
20260507171542 13 292 11.3 14.5 0.00 0.00 0.00 43 1094.0
20260507171040 13 239 12.9 14.5 0.00 0.00 0.00 42 1094.1
20260507170536 13 10 3.2 4.8 0.00 0.00 0.00 43 1093.9
20260507170033 13 357 6.4 11.3 0.00 0.00 0.00 42 1094.1
20260507165529 14 24 1.6 9.7 0.00 0.00 0.00 43 1094.0
20260507165026 15 341 6.4 9.7 0.00 0.00 0.00 41 1094.1
20260507164522 15 218 8.0 11.3 0.00 0.00 0.00 42 1094.2
20260507164019 15 0 4.8 11.3 0.00 0.00 0.00 39 1094.2
20260507163516 15 297 1.6 3.2 0.00 0.00 0.00 45 1094.2
20260507163014 13 346 6.4 14.5 0.00 0.00 0.00 46 1094.5
20260507162509 13 267 12.9 16.1 0.00 0.00 0.00 45 1094.6
20260507162006 13 302 6.4 9.7 0.00 0.00 0.00 49 1094.2
20260507161502 14 328 6.4 12.9 0.00 0.00 0.00 44 1094.2
20260507160959 14 14 0.0 4.8 0.00 0.00 0.00 44 1094.5
20260507160455 13 292 9.7 12.9 0.00 0.00 0.00 46 1094.5
20260507155951 12 352 4.8 6.4 0.00 0.00 0.00 48 1094.5
20260507155447 12 340 6.4 6.4 0.00 0.00 0.00 49 1094.5
20260507154944 12 17 6.4 12.9 0.00 0.00 0.00 48 1094.7
20260507154441 13 335 3.2 9.7 0.00 0.00 0.00 49 1094.7
20260507153938 13 357 3.2 9.7 0.00 0.00 0.00 46 1094.6
20260507153435 12 345 3.2 4.8 0.00 0.00 0.00 48 1094.8
20260507152931 12 312 3.2 4.8 0.00 0.00 0.00 45 1094.7
20260507152427 13 262 3.2 9.7 0.00 0.00 0.00 48 1094.9
20260507151923 12 313 4.8 14.5 0.00 0.00 0.00 48 1094.9
20260507151420 13 309 8.0 11.3 0.00 0.00 0.00 49 1095.1
20260507150917 13 308 9.7 17.7 0.00 0.00 0.00 48 1095.0
20260507150414 12 230 8.0 11.3 0.00 0.00 0.00 48 1095.0
20260507145910 12 351 0.0 3.2 0.00 0.00 0.00 50 1095.2
20260507145406 12 341 1.6 9.7 0.00 0.00 0.00 49 1095.3
20260507144903 12 290 12.9 14.5 0.00 0.00 0.00 48 1095.6
20260507144400 12 325 12.9 16.1 0.00 0.00 0.00 49 1095.3
20260507143857 13 249 6.4 12.9 0.00 0.00 0.00 48 1095.2
20260507143354 13 241 16.1 17.7 0.00 0.00 0.00 48 1095.6
20260507142850 12 30 0.0 12.9 0.00 0.00 0.00 49 1095.5
20260507142347 12 264 8.0 16.1 0.00 0.00 0.00 49 1095.8
20260507141844 12 280 9.7 17.7 0.00 0.00 0.00 47 1095.8
20260507141340 12 244 6.4 11.3 0.00 0.00 0.00 49 1096.0
20260507140837 12 158 4.8 9.7 0.00 0.00 0.00 52 1096.0
20260507140334 12 280 3.2 4.8 0.00 0.00 0.00 54 1095.9
20260507135832 12 349 3.2 9.7 0.00 0.00 0.00 52 1095.8
20260507135328 11 355 3.2 6.4 0.00 0.00 0.00 53 1096.2
20260507134826 11 22 6.4 12.9 0.00 0.00 0.00 56 1096.0
20260507134321 11 293 9.7 12.9 0.00 0.00 0.00 58 1096.2
20260507133817 11 282 8.0 11.3 0.00 0.00 0.00 58 1096.1
20260507133313 11 220 9.7 14.5 0.00 0.00 0.00 56 1096.2
20260507132812 11 30 1.6 4.8 0.00 0.00 0.00 61 1096.2
20260507132308 11 306 3.2 6.4 0.00 0.00 0.00 61 1096.1
20260507131805 11 27 1.6 11.3 0.00 0.00 0.00 61 1096.2
20260507131302 11 325 0.0 3.2 0.00 0.00 0.00 63 1096.3
20260507130758 11 64 1.6 3.2 0.00 0.00 0.00 65 1096.3
20260507130256 11 30 0.0 1.6 0.00 0.00 0.00 65 1096.3
20260507125755 10 72 1.6 1.6 0.00 0.00 0.00 69 1096.3
20260507125252 10 49 1.6 3.2 0.00 0.00 0.00 68 1096.2
20260507124749 9 236 3.2 3.2 0.00 0.00 0.00 71 1096.3
20260507124245 8 354 1.6 3.2 0.00 0.00 0.00 75 1096.4
20260507123744 8 18 1.6 3.2 0.00 0.00 0.00 82 1096.2
20260507123241 7 33 0.0 1.6 0.00 0.00 0.00 92 1096.4
20260507122736 6 34 0.0 0.0 0.00 0.00 0.00 96 1096.4
20260507122232 6 30 0.0 1.6 0.00 0.00 0.00 96 1096.2
20260507121728 5 44 0.0 0.0 0.00 0.00 0.00 97 1096.3
20260507121224 5 25 0.0 0.0 0.00 0.00 0.00 97 1096.3
20260507120720 5 27 0.0 0.0 0.00 0.00 0.00 97 1096.3
20260507120218 5 27 0.0 0.0 0.00 0.00 0.00 97 1096.3
20260507115714 4 31 0.0 0.0 0.00 0.00 0.00 97 1096.2
20260507115209 4 31 0.0 0.0 0.00 0.00 0.00 97 1096.2
20260507114705 3 22 0.0 0.0 0.00 0.00 0.00 97 1096.6
20260507114203 3 27 0.0 0.0 0.00 0.00 0.00 97 1096.7
20260507113700 2 26 0.0 0.0 0.00 0.00 0.00 97 1096.4
20260507113157 2 25 0.0 0.0 0.00 0.00 0.00 97 1096.4
20260507112655 2 26 0.0 0.0 0.00 0.00 0.00 97 1096.1
20260507112151 2 26 0.0 0.0 0.00 0.00 0.00 97 1096.3
20260507111649 1 24 0.0 0.0 0.00 0.00 0.00 97 1096.1
20260507111145 1 21 0.0 0.0 0.00 0.00 0.00 97 1096.3
20260507110641 1 23 0.0 0.0 0.00 0.00 0.00 97 1096.1
20260507110138 1 21 0.0 0.0 0.00 0.00 0.00 97 1096.1
20260507105635 1 24 0.0 0.0 0.00 0.00 0.00 96 1096.0
20260507105131 1 22 0.0 0.0 0.00 0.00 0.00 96 1095.8
20260507104628 1 25 0.0 0.0 0.00 0.00 0.00 96 1096.0
20260507104125 1 18 0.0 0.0 0.00 0.00 0.00 96 1095.8
20260507103621 1 22 0.0 0.0 0.00 0.00 0.00 96 1096.0
20260507103118 1 17 0.0 0.0 0.00 0.00 0.00 96 1096.0
20260507102614 1 6 0.0 0.0 0.00 0.00 0.00 96 1095.8
20260507102110 1 16 0.0 0.0 0.00 0.00 0.00 96 1095.9
20260507101607 1 19 0.0 0.0 0.00 0.00 0.00 97 1095.8
20260507101102 1 19 0.0 0.0 0.00 0.00 0.00 96 1095.9
20260507100600 1 19 0.0 0.0 0.00 0.00 0.00 96 1095.9
20260507100058 1 12 0.0 0.0 0.00 0.00 0.00 96 1095.7
20260507095555 1 20 0.0 0.0 0.00 0.00 0.00 96 1095.8
20260507095052 1 19 0.0 0.0 0.00 0.00 0.00 96 1095.9
20260507094548 1 19 0.0 0.0 0.00 0.00 0.00 96 1095.8
20260507094045 2 8 0.0 0.0 0.00 0.00 0.00 96 1096.0
20260507093543 1 12 0.0 0.0 0.00 0.00 0.00 96 1095.8
20260507093042 2 18 0.0 0.0 0.00 0.00 0.00 96 1095.6
20260507092537 2 19 0.0 0.0 0.00 0.00 0.00 96 1095.9
20260507092034 1 10 0.0 0.0 0.00 0.00 0.00 96 1095.9
20260507091531 1 21 0.0 0.0 0.00 0.00 0.00 95 1096.1
20260507091027 1 22 0.0 0.0 0.00 0.00 0.00 95 1096.0
20260507090523 1 22 0.0 0.0 0.00 0.00 0.00 95 1095.9
20260507090020 2 18 0.0 0.0 0.00 0.00 0.00 95 1096.0
20260507085517 2 12 0.0 0.0 0.00 0.00 0.00 95 1095.9
20260507085014 2 23 0.0 0.0 0.00 0.00 0.00 95 1095.8
20260507084510 2 22 0.0 0.0 0.00 0.00 0.00 95 1095.9
20260507084008 2 21 0.0 0.0 0.00 0.00 0.00 95 1095.8
20260507083503 2 19 0.0 0.0 0.00 0.00 0.00 94 1095.9
20260507083000 2 21 0.0 0.0 0.00 0.00 0.00 94 1095.8
20260507082457 3 13 0.0 0.0 0.00 0.00 0.00 94 1096.0
20260507081953 3 7 0.0 0.0 0.00 0.00 0.00 94 1095.9
20260507081449 3 16 0.0 0.0 0.00 0.00 0.00 94 1096.0
20260507080947 3 9 0.0 0.0 0.00 0.00 0.00 94 1095.7
20260507080442 3 352 0.0 0.0 0.00 0.00 0.00 93 1095.9
20260507075937 3 2 0.0 0.0 0.00 0.00 0.00 93 1096.0
20260507075434 3 14 0.0 0.0 0.00 0.00 0.00 93 1096.0
20260507074931 3 33 0.0 0.0 0.00 0.00 0.00 93 1095.9
20260507074428 3 13 0.0 0.0 0.00 0.00 0.00 92 1096.0
20260507073926 3 12 0.0 0.0 0.00 0.00 0.00 92 1096.0
20260507073422 3 13 0.0 0.0 0.00 0.00 0.00 91 1095.7
20260507072919 4 14 0.0 0.0 0.00 0.00 0.00 91 1096.0
20260507072416 4 26 0.0 0.0 0.00 0.00 0.00 91 1095.8
20260507071914 4 27 0.0 0.0 0.00 0.00 0.00 92 1095.9
20260507071411 4 26 0.0 0.0 0.00 0.00 0.00 91 1096.1
20260507070907 3 23 0.0 0.0 0.00 0.00 0.00 91 1096.3
20260507070404 4 24 0.0 0.0 0.00 0.00 0.00 89 1096.0
20260507065901 4 23 0.0 0.0 0.00 0.00 0.00 89 1096.3
20260507065357 5 20 0.0 0.0 0.00 0.00 0.00 88 1095.9
20260507064855 5 18 0.0 0.0 0.00 0.00 0.00 88 1096.1
20260507064353 5 15 0.0 0.0 0.00 0.00 0.00 88 1096.1
20260507063851 5 13 0.0 0.0 0.00 0.00 0.00 87 1096.2
20260507063348 5 22 0.0 0.0 0.00 0.00 0.00 86 1096.1
20260507062844 5 22 0.0 0.0 0.00 0.00 0.00 86 1096.1
20260507062341 5 24 0.0 0.0 0.00 0.00 0.00 85 1096.0
20260507061839 5 32 0.0 0.0 0.00 0.00 0.00 84 1096.1
20260507061337 6 23 0.0 0.0 0.00 0.00 0.00 82 1096.1
20260507060835 6 18 0.0 0.0 0.00 0.00 0.00 81 1096.4
20260507060331 6 20 0.0 0.0 0.00 0.00 0.00 80 1096.3
20260507055828 6 18 0.0 0.0 0.00 0.00 0.00 79 1096.3
20260507055323 6 22 0.0 0.0 0.00 0.00 0.00 79 1096.3
20260507054820 7 15 0.0 0.0 0.00 0.00 0.00 79 1096.3
20260507054316 7 28 0.0 0.0 0.00 0.00 0.00 78 1096.3
20260507053814 7 24 0.0 0.0 0.00 0.00 0.00 77 1096.6
20260507053311 7 24 0.0 0.0 0.00 0.00 0.00 76 1096.7
20260507052810 7 27 0.0 0.0 0.00 0.00 0.00 75 1096.7
20260507052307 8 33 0.0 0.0 0.00 0.00 0.00 76 1096.9
20260507051804 8 26 0.0 0.0 0.00 0.00 0.00 75 1097.1
20260507051302 8 28 0.0 0.0 0.00 0.00 0.00 73 1097.0
20260507050758 8 25 0.0 1.6 0.00 0.00 0.00 70 1096.8
20260507050254 8 27 0.0 0.0 0.00 0.00 0.00 70 1097.1
20260507045751 8 28 0.0 0.0 0.00 0.00 0.00 71 1097.1
20260507045247 8 25 0.0 0.0 0.00 0.00 0.00 68 1097.1
20260507044745 8 22 0.0 0.0 0.00 0.00 0.00 66 1097.0